Home   Weather   Bremerhaven   Past weeks

Flag for Germany Past Weather in Bremerhaven, Bremen, Germany — Yesterday and Last 2 Weeks

Now
59 °F

Passing clouds.


Feels Like: 58 °F
Forecast: 55 / 73 °F
Wind: 6 mph from South

Location: Nordholz

Current Time: Sep 24, 2016 at 11:06:20 PM

Latest Report: Sep 24, 2016 at 10:20 PM


Visibility: N/A

Pressure: 30.15 "Hg

Humidity: 77%

Dew Point: 52 °F

Location of BremerhavenLocation

Past Weather in Bremerhaven — Graph

°F

Bremerhaven Temperature Yesterday

Maximum temperature yesterday: 66 °F (at 12:20 PM)
Minimum temperature yesterday: 54 °F (at 11:20 PM)
Average temperature yesterday: 60 °F

High & Low Weather Summary for the Past Weeks

 TemperatureHumidityPressure
High86 °F (Sep 13, 3:20 PM)100% (Sep 12, 6:20 AM)30.24 "Hg (Sep 12, 6:20 AM)
Low50 °F (Sep 24, 6:20 AM)42% (Sep 15, 2:20 PM)29.86 "Hg (Sep 16, 6:20 AM)
Average64 °F75%30.07 "Hg
* Reported Sep 9 9:20 PM — Sep 24 9:20 PM, Bremerhaven, Weather by CustomWeather, © 2016

Note: Actual official high and low records may vary slightly from our data, if they occured in-between our weather recording intervals... More about our weather records

Advertising

Bremerhaven Weather History for the Previous 24 Hours

Scroll right to see more
 ConditionsComfort  
Time TempWeatherWind HumidityBarometerVisibility
9:20 PM
Sat, Sep 24
61 °FPassing clouds.5 mph72%30.15 "HgN/A
8:20 PM59 °FPassing clouds.3 mph82%30.15 "HgN/A
7:20 PM63 °FPassing clouds.1 mph73%30.18 "HgN/A
6:20 PM68 °FBroken clouds.5 mph56%30.15 "HgN/A
5:20 PM70 °FBroken clouds.8 mph53%30.18 "HgN/A
4:20 PM70 °FBroken clouds.9 mph53%30.18 "HgN/A
3:20 PM70 °FBroken clouds.8 mph50%30.18 "HgN/A
2:20 PM68 °FBroken clouds.8 mph56%30.21 "HgN/A
1:20 PM66 °FPartly sunny.9 mph56%30.24 "HgN/A
12:20 PM64 °FPartly sunny.8 mph64%30.24 "HgN/A
11:20 AM61 °FPartly sunny.8 mph68%30.24 "HgN/A
10:20 AM59 °FScattered clouds.7 mph72%30.24 "HgN/A
9:20 AM57 °FPartly sunny.5 mph77%30.24 "HgN/A
8:20 AM52 °FFog.6 mph88%30.24 "HgN/A
7:20 AM50 °FFog.7 mph94%30.24 "HgN/A
6:20 AM50 °FFog.6 mph94%30.24 "HgN/A
5:20 AM52 °FCool.6 mph94%30.24 "Hg6 mi
4:20 AM52 °FCool.7 mph94%30.24 "HgN/A
3:20 AM52 °FCool.7 mph94%30.24 "HgN/A
2:20 AM54 °FCool.7 mph88%30.24 "HgN/A
1:20 AM52 °FCool.5 mph94%30.24 "HgN/A
12:20 AM54 °FCool.3 mph82%30.24 "HgN/A
11:20 PM
Fri, Sep 23
54 °FPassing clouds.5 mph82%30.24 "HgN/A
Weather by CustomWeather, © 2016

See weather overviewHow to use our weather pages